#timestamp,LO_Frequency,Hit,StdDev 
1691308815.7,286047011.9,Y
1691308835.6,286047001.1,P
1691308855.4,286047001.0,P
1691308875.3,286047001.5,P
1691308895.1,286047001.7,Y
1691308896.0,286047001.7,P
1691308915.8,286047001.6,P
1691308935.7,286047002.7,P
1691308955.5,286047000.2,N
1691308975.4,286047000.3,N
1691308995.2,286047000.6,N
1691309015.0,286046998.1,N
1691309015.9,286046998.1,N
1691309035.8,286047000.7,N
1691309055.6,286047000.7,N
1691309075.4,286047000.9,N
1691309095.3,286047001.0,N
1691309115.1,286047000.5,N
1691309135.9,286046998.1,N
1691309155.7,286046998.6,N
1691309175.5,286046999.3,N
1691309195.4,286046999.2,N
1691309215.2,286046998.9,N
1691309235.1,286046998.5,N
1691309236.0,286046998.5,N
1691309255.8,286047001.2,N
1691309275.6,286047000.7,N
1691309295.5,286047001.2,N
1691309315.3,286047000.7,N
1691309335.1,286047001.1,N
1691309355.9,286047000.3,N
1691309375.7,286046999.8,N
1691309395.6,286047001.8,N
1691309415.4,286047002.4,N
1691309435.2,286047002.3,N
1691309455.1,286046999.7,N
1691309456.0,286046999.7,N
1691309475.8,286047002.3,N
1691309495.7,286047000.1,N
1691309515.5,286046999.9,N
1691309535.3,286047002.3,N
1691309555.2,286047000.2,N
1691309575.0,286047000.3,N
1691309575.9,286047000.3,N
1691309595.7,286046999.8,N
1691309615.6,286047000.4,N
1691309635.4,286046999.8,N
1691309655.3,286046999.7,N
1691309675.1,286046999.9,N
1691309676.0,286046999.9,N
1691309695.8,286047002.8,N
1691309715.7,286047002.7,N
1691309735.5,286047002.8,N
1691309755.3,286047000.3,N
1691309775.2,286047001.1,N
1691309795.0,286046998.2,N
1691309795.9,286046998.2,N
1691309815.8,286047000.7,N
1691309835.6,286047000.2,N
1691309855.4,286047000.3,N
1691309875.3,286047000.0,N
1691309895.1,286046999.9,N
1691309915.9,286047000.1,N
1691309935.7,286047002.3,N
1691309955.5,286046993.4,Y
1691309975.4,286046992.3,P
1691309995.2,286046992.0,N
1691310015.0,286046994.4,N
1691310015.9,286046994.4,N
1691310035.8,286046992.3,N
1691310055.6,286046992.6,N
1691310075.5,286046994.0,N
1691310095.3,286046990.2,Y
1691310115.1,286047001.2,P
1691310135.9,286046999.2,N
1691310155.7,286046999.9,N
1691310175.5,286046999.9,N
1691310195.4,286047000.8,N
1691310215.2,286047000.1,N
1691310235.1,286047000.1,N
1691310236.0,286047000.1,N
1691310255.8,286047001.5,N
1691310275.6,286047000.9,N
1691310295.5,286047000.6,N
1691310315.3,286047000.3,N
1691310335.1,286047000.5,N
1691310355.9,286047002.7,N
1691310375.7,286047002.7,N
1691310395.6,286046999.7,N
1691310415.4,286046999.7,N
1691310435.2,286047000.6,N
1691310455.1,286047000.0,N
1691310456.0,286047000.0,N
1691310475.8,286047002.4,N
1691310495.6,286047002.6,N
1691310515.5,286047002.6,N
1691310535.3,286047002.6,N
1691310555.2,286047002.1,N
1691310575.9,286047001.6,N
1691310595.7,286046999.7,N
1691310615.6,286047002.5,N
1691310635.4,286047002.1,N
1691310655.2,286047003.7,N
1691310675.1,286047001.9,N
1691310676.0,286047001.9,N
1691310695.8,286047001.6,N
1691310715.7,286047001.6,N
1691310735.5,286047003.8,Y
1691310755.3,286047000.0,P
1691310775.2,286047002.5,P
1691310795.0,286047001.6,N
1691310795.9,286047001.6,N
1691310815.7,286047001.0,N
1691310835.6,286047001.9,N
1691310855.4,286047002.1,N
1691310875.3,286046999.7,N
1691310895.1,286046999.7,N
1691310915.8,286047002.8,N
1691310935.7,286046999.7,N
1691310955.5,286047000.4,N
1691310975.4,286047004.3,Y
1691310995.2,286046999.7,P
1691311015.0,286047001.2,N
1691311015.9,286047001.2,N
1691311035.8,286047000.0,N
1691311055.6,286047000.8,N
1691311075.4,286047000.1,N
1691311095.3,286047000.5,N
1691311115.1,286047000.0,N
1691311135.9,286047000.5,N
1691311155.7,286047002.5,Y
1691311175.5,286047002.2,P
1691311195.4,286047000.0,N
1691311215.2,286046999.7,N
1691311235.1,286046999.9,N
1691311236.0,286046999.9,N
1691311255.8,286047002.4,N
1691311275.6,286047000.5,N
1691311295.5,286047000.6,N
1691311315.3,286047000.4,N
1691311335.1,286047002.2,N
1691311355.9,286047002.7,N
1691311375.7,286047000.0,N
1691311395.6,286047002.3,N
1691311415.4,286047002.4,N
1691311435.2,286047001.6,N
1691311485.1,286047002.6,E
1691311495.0,286046998.5,N
1691311495.9,286046998.5,P
1691311515.8,286046996.9,P
1691311535.6,286046999.0,N
1691311555.4,286047001.2,N
1691311575.3,286047000.8,N
1691311595.1,286047000.4,N
1691311615.8,286047000.1,N
1691311635.7,286047001.0,N
1691311655.5,286047000.8,N
1691311675.4,286046998.8,N
1691311695.2,286046998.4,N
1691311715.0,286046999.0,N
1691311715.9,286046999.0,N
1691311735.8,286046999.4,N
1691311755.6,286046996.9,N
1691311775.5,286046998.8,N
1691311795.3,286047001.2,N
1691311815.1,286046998.9,N
1691311835.9,286046998.4,N
1691311855.7,286047000.5,N
1691311875.5,286047000.3,N
1691311895.4,286046998.1,N
1691311915.2,286047000.3,N
1691311935.1,286047000.0,N
1691311936.0,286047000.0,N
1691311955.8,286047000.5,N
1691311975.6,286046998.2,N
1691311995.5,286046998.3,N
1691312015.3,286047002.7,N
1691312035.2,286046999.7,N
1691312055.9,286046998.7,N
1691312075.7,286047000.2,N
1691312095.6,286046999.9,N
1691312115.4,286046999.7,N
1691312135.3,286046999.8,N
1691312155.1,286047002.8,N
1691312156.0,286047002.8,N
1691312175.8,286047000.3,N
1691312195.7,286047002.8,N
1691312215.5,286047001.0,N
1691312235.3,286047000.4,N
1691312255.2,286047002.5,N
1691312275.0,286046999.7,N
1691312275.9,286046999.7,N
1691312295.8,286047002.0,N
1691312315.6,286047002.5,N
1691312335.4,286047001.8,N
1691312355.3,286047001.8,N
1691312375.1,286047001.7,N
1691312395.9,286047003.0,N
